Location: Cahas Mountain Overlook
(37.0833°N, 80.1000°W)
Time: 07:27:17
(UTC-05:00)

Vanguard 2 Rocket - Pass Details

Date: 11 February 2026
Orbit: 553 x 3287 km, 32.9° (Epoch: 5 March)

Event Time Altitude Azimuth Distance (km) Brightness Sun altitude
Rises 18:11:33 0° 272° (W) 5,376 12.7 -3.8°
Reaches altitude 10° 18:15:51 10° 269° (W) 3,913 11.8 -4.6°
Maximum altitude 18:24:56 57° 194° (SSW) 1,228 7.7 -6.4°
Drops below altitude 10° 18:30:14 10° 115° (ESE) 2,332 8.5 -7.4°
Enters shadow 18:31:26 - 112° (ESE) 2,774 8.9 -7.6°
